Home   Weather   Saint-Denis   Past weeks

Flag for France Past Weather in Saint-Denis, Île-de-France, France — Yesterday and Last 2 Weeks

Now
41 °F

Clear.


Feels Like: 38 °F
Forecast: 34 / 48 °F
Wind: 5 mph from Northeast

Location: Paris Le Bourget Airport

Current Time: Dec 7, 2016 at 9:38:27 pm

Latest Report: Dec 7, 2016 at 9:00 pm


Visibility: 4 mi

Pressure: 30.48 "Hg

Humidity: 81%

Dew Point: 36 °F

Location of Saint-DenisLocation

Past Weather in Saint-Denis — Graph

°F

Saint-Denis Temperature Yesterday

Maximum temperature yesterday: 52 °F (at 2:00 pm)
Minimum temperature yesterday: 30 °F (at 8:00 am)
Average temperature yesterday: 39 °F

High & Low Weather Summary for the Past Weeks

 TemperatureHumidityPressure
High59 °F (Nov 23, 3:00 pm)94% (Nov 23, 3:30 am)30.60 "Hg (Nov 23, 3:30 am)
Low23 °F (Nov 30, 7:00 am)42% (Nov 28, 1:30 pm)29.86 "Hg (Nov 22, 8:00 pm)
Average40 °F79%30.22 "Hg
* Reported Nov 22 8:00 pm — Dec 7 8:30 pm, Saint-Denis, Weather by CustomWeather, © 2016

Note: Actual official high and low records may vary slightly from our data, if they occured in-between our weather recording intervals... More about our weather records

Advertising

Saint-Denis Weather History for the Previous 24 Hours

Scroll right to see more
 ConditionsComfort  
Time TempWeatherWind HumidityBarometerVisibility
8:30 pm
Wed, Dec 7
43 °FClear.No wind81%30.48 "Hg5 mi
8:00 pm41 °FClear.6 mph87%30.48 "Hg4 mi
7:30 pm45 °FClear.5 mph81%30.48 "Hg5 mi
7:00 pm43 °FClear.5 mph76%30.45 "Hg5 mi
6:30 pm45 °FClear.5 mph76%30.45 "Hg6 mi
6:00 pm45 °FClear.6 mph76%30.45 "Hg6 mi
5:30 pm45 °FClear.5 mph76%30.45 "Hg6 mi
5:00 pm46 °FClear.5 mph71%30.45 "Hg6 mi
4:30 pm48 °FClear.5 mph66%30.45 "Hg6 mi
3:30 pm50 °FSunny.5 mph62%30.45 "Hg10 mi
3:00 pm52 °FSunny.5 mph58%30.45 "Hg10 mi
2:30 pm50 °FSunny.5 mph62%30.45 "Hg10 mi
2:00 pm50 °FSunny.6 mph62%30.45 "Hg10 mi
1:30 pm48 °FClear.3 mph66%30.45 "Hg6 mi
1:00 pm48 °FClear.3 mph66%30.48 "Hg5 mi
12:30 pm46 °FClear.5 mph71%30.48 "Hg5 mi
12:00 pm45 °FClear.6 mph76%30.48 "Hg5 mi
11:30 am45 °FClear.5 mph76%30.48 "Hg4 mi
11:00 am41 °FClear.3 mph87%30.48 "Hg4 mi
10:30 am39 °FClear.3 mph87%30.48 "Hg4 mi
10:00 am39 °FFog.3 mph87%30.48 "Hg3 mi
9:30 am36 °FFog.6 mph93%30.48 "Hg3 mi
9:00 am34 °FFog.3 mph93%30.48 "Hg3 mi
8:30 am34 °FFog.3 mph87%30.48 "Hg3 mi
8:00 am34 °FFog.3 mph93%30.45 "Hg3 mi
7:30 am34 °FFog.3 mph93%30.45 "Hg3 mi
7:00 am34 °FFog.3 mph93%30.45 "Hg3 mi
6:30 am34 °FFog.5 mph93%30.45 "Hg3 mi
6:00 am34 °FFog.6 mph93%30.45 "Hg3 mi
5:30 am34 °FFog.5 mph87%30.45 "Hg3 mi
5:00 am34 °FFog.6 mph87%30.45 "Hg3 mi
4:30 am34 °FFog.6 mph87%30.45 "Hg3 mi
4:00 am34 °FFog.5 mph87%30.45 "Hg3 mi
3:30 am32 °FIce fog.6 mph93%30.45 "Hg3 mi
3:00 am32 °FIce fog.5 mph93%30.45 "Hg3 mi
2:30 am34 °FFog.6 mph87%30.45 "Hg3 mi
2:00 am34 °FFog.3 mph87%30.45 "Hg3 mi
1:30 am32 °FIce fog.7 mph87%30.45 "Hg3 mi
1:00 am36 °FFog.3 mph87%30.45 "Hg3 mi
12:30 am36 °FFog.5 mph87%30.45 "Hg3 mi
12:00 am36 °FFog.5 mph87%30.45 "Hg3 mi
11:30 pm
Tue, Dec 6
36 °FFog.3 mph93%30.45 "Hg3 mi
11:00 pm37 °FFog.6 mph87%30.45 "Hg3 mi
10:30 pm37 °FFog.3 mph87%30.45 "Hg3 mi
10:00 pm39 °FFog.2 mph87%30.45 "Hg3 mi
9:30 pm37 °FClear.3 mph87%30.45 "Hg4 mi
9:00 pm37 °FClear.5 mph87%30.45 "Hg4 mi
Weather by CustomWeather, © 2016

See weather overviewHow to use our weather pages